DW9005 Weather Reports


time (UTC)temp
C
wind
direction
speed
KPH
gust
KPH
rain 1hr
cm
rain 24hr
cm
rain mn
cm
humidity
%
barometer
mb
20260509043012 13 211 0.0 0.0 0.00 0.00 0.00 92 1013.1
20260509041507 13 211 0.0 0.0 0.00 0.00 0.00 91 1013.1
20260509040005 13 215 0.0 0.0 0.00 0.00 0.00 91 1013.1
20260509034504 13 213 0.0 0.0 0.00 0.00 0.00 91 1013.1
20260509033003 13 216 0.0 0.0 0.00 0.00 0.00 91 1013.2
20260509031503 13 196 0.0 0.0 0.00 0.00 0.00 91 1012.9
20260509030002 13 159 0.0 0.0 0.00 0.00 0.00 91 1013.2
20260509024502 14 177 0.0 0.0 0.00 0.00 0.00 91 1013.3
20260509023044 14 177 0.0 0.0 0.00 0.00 0.00 91 1013.6
20260509021545 14 177 0.0 0.0 0.00 0.00 0.00 91 1013.7
20260509020026 14 177 0.0 0.0 0.00 0.00 0.00 90 1013.3
20260509014525 15 177 0.0 0.0 0.00 0.00 0.00 90 1013.1
20260509013008 15 177 0.0 0.0 0.00 0.00 0.00 89 1013.1
20260509011507 15 177 0.0 0.0 0.00 0.00 0.00 89 1013.2
20260509010050 15 177 0.0 0.0 0.00 0.00 0.00 88 1013.2
20260509004605 16 190 0.0 0.0 0.00 0.00 0.00 87 1013.1
20260509003031 16 190 0.0 0.0 0.00 0.00 0.00 86 1013.2
20260509001531 16 89 0.0 0.0 0.00 0.00 0.00 85 1013.2
20260509000010 16 124 0.0 0.0 0.00 0.00 0.00 84 1013.6
20260508234509 16 124 0.0 0.0 0.00 0.00 0.00 83 1014.3
20260508233051 17 172 0.0 0.0 0.00 0.00 0.00 82 1014.2
20260508231554 17 169 0.0 0.0 0.00 0.00 0.00 80 1014.5
20260508230033 17 168 0.0 0.0 0.00 0.00 0.00 80 1014.2
20260508224533 17 171 0.0 0.0 0.00 0.00 0.00 79 1014.4
20260508223033 17 179 0.0 0.0 0.00 0.00 0.00 78 1014.2
20260508221515 17 192 0.0 0.0 0.00 0.00 0.00 78 1013.9
20260508220101 18 174 0.0 0.0 0.00 0.00 0.00 75 1014.0
20260508214606 18 178 0.0 0.0 0.00 0.00 0.00 74 1014.5
20260508213038 18 181 0.0 0.0 0.00 0.00 0.00 74 1014.4
20260508211537 18 126 0.0 0.0 0.00 0.00 0.00 73 1014.5
20260508210020 18 176 0.0 0.0 0.00 0.00 0.00 74 1014.5
20260508204525 18 94 0.0 0.0 0.00 0.00 0.00 73 1014.4
20260508203102 18 138 0.0 0.0 0.00 0.00 0.00 72 1014.6
20260508201600 18 154 0.0 0.0 0.00 0.00 0.00 70 1014.8
20260508200041 18 171 0.0 0.0 0.00 0.00 0.00 68 1014.7
20260508194540 19 202 0.0 0.0 0.00 0.00 0.00 68 1014.8
20260508193022 19 161 0.0 0.0 0.00 0.00 0.00 68 1014.9
20260508191527 19 166 0.0 0.0 0.00 0.00 0.00 65 1014.8
20260508190003 19 125 0.0 0.0 0.00 0.00 0.00 62 1014.9
20260508184502 19 232 0.0 0.0 0.00 0.00 0.00 62 1015.4
20260508183048 19 128 0.0 0.0 0.00 0.00 0.00 62 1015.5
20260508181557 20 360 0.0 0.0 0.00 0.00 0.00 62 1015.7
20260508180028 20 227 0.0 0.0 0.00 0.00 0.00 61 1016.1
20260508174524 20 211 0.0 0.0 0.00 0.00 0.00 60 1016.0
20260508173009 20 118 0.0 0.0 0.00 0.00 0.00 59 1016.4
20260508171506 19 317 0.0 0.0 0.00 0.00 0.00 61 1016.8
20260508170047 19 130 0.0 0.0 0.00 0.00 0.00 63 1016.9
20260508164546 19 119 0.0 0.0 0.00 0.00 0.00 61 1017.1
20260508163027 19 109 0.0 0.0 0.00 0.00 0.00 60 1017.4
20260508161528 18 296 0.0 0.0 0.00 0.00 0.00 61 1017.4
20260508160012 18 135 0.0 0.0 0.00 0.00 0.00 67 1017.6
20260508154504 18 148 0.0 0.0 0.00 0.00 0.00 66 1017.7
20260508153046 17 336 0.0 0.0 0.00 0.00 0.00 71 1017.9
20260508151546 17 343 0.0 0.0 0.00 0.00 0.00 70 1018.2
20260508150022 16 133 0.0 0.0 0.00 0.00 0.00 73 1018.4
20260508144519 16 332 0.0 0.0 0.00 0.00 0.00 72 1018.2
20260508143001 16 329 0.0 0.0 0.00 0.00 0.00 70 1018.5
20260508141606 16 244 0.0 0.0 0.00 0.00 0.00 77 1018.3
20260508140041 15 18 0.0 0.0 0.00 0.00 0.00 86 1018.6
20260508134535 13 322 0.0 0.0 0.00 0.00 0.00 88 1018.7
20260508133016 13 337 0.0 0.0 0.00 0.00 0.00 90 1018.4
20260508131512 12 319 0.0 0.0 0.00 0.00 0.00 91 1018.3
20260508130057 12 341 0.0 0.0 0.00 0.00 0.00 92 1018.3
20260508124552 12 56 0.0 0.0 0.00 0.00 0.00 93 1018.2
20260508123035 11 17 0.0 0.0 0.00 0.00 0.00 93 1018.2
20260508121553 11 355 0.0 0.0 0.00 0.00 0.00 94 1018.0
20260508120015 -17 0.0 0.0 0.00 0.00 0.00 1017.9
20260508114509 -17 0.0 0.0 0.00 0.00 0.00 1017.8
20260508113049 -17 0.0 0.0 0.00 0.00 0.00 1017.4
20260508111544 -17 0.0 0.0 0.00 0.00 0.00 1017.2
20260508110023 -17 0.0 0.0 0.00 0.00 0.00 1017.2
20260508104523 -17 0.0 0.0 0.00 0.00 0.00 1016.9
20260508103012 -17 0.0 0.0 0.00 0.00 0.00 1016.7
20260508101600 -17 0.0 0.0 0.00 0.00 0.00 1016.6
20260508100056 10 44 0.0 0.0 0.00 0.00 0.00 93 1016.3
20260508094608 10 44 0.0 0.0 0.00 0.00 0.00 93 1015.7
20260508093055 11 44 0.0 0.0 0.00 0.00 0.00 93 1015.5
20260508091556 11 43 0.0 0.0 0.00 0.00 0.00 93 1015.3
20260508090053 11 43 0.0 0.0 0.00 0.00 0.00 93 1015.2
20260508084553 11 43 0.0 0.0 0.00 0.00 0.00 93 1015.1
20260508083113 11 45 0.0 0.0 0.00 0.00 0.00 93 1015.2
20260508081532 11 45 0.0 0.0 0.00 0.00 0.00 92 1015.2
20260508080013 11 42 0.0 0.0 0.00 0.00 0.00 93 1015.2
20260508074512 11 32 0.0 0.0 0.00 0.00 0.00 92 1015.4
20260508073101 11 32 0.0 0.0 0.00 0.00 0.00 92 1015.2
20260508071559 12 32 0.0 0.0 0.00 0.00 0.00 92 1015.3
20260508070059 12 32 0.0 0.0 0.00 0.00 0.00 92 1015.3
20260508064609 12 32 0.0 0.0 0.00 0.00 0.00 92 1015.5
20260508063056 12 32 0.0 0.0 0.00 0.00 0.00 92 1015.6
20260508061557 12 31 0.0 0.0 0.00 0.00 0.00 92 1015.3
20260508060054 12 31 0.0 0.0 0.00 0.00 0.00 92 1015.7
20260508054555 12 31 0.0 0.0 0.00 0.00 0.00 92 1015.9
20260508053051 12 31 0.0 0.0 0.00 0.00 0.00 92 1016.0
20260508051532 12 31 0.0 0.0 0.00 0.00 0.00 92 1016.1
20260508050034 12 30 0.0 0.0 0.00 0.00 0.00 92 1016.0
20260508044514 12 33 0.0 0.0 0.00 0.00 0.00 92 1016.1